Regional Weather Roundup
Issued by NWS

Home | Current Version | Previous Version | Text Only | Print | Product List | Glossary On
Versions: 1 2 3 4 5 6 7 8 9 10 11 12 13 14 15 16 17 18 19 20 21 22 23 24 25 26 27 28 29 30 31 32 33 34 35 36 37 38 39 40 41 42 43 44 45 46 47 48 49 50
000
ASUS46 KPQR 290110
RWROR

OREGON REGIONAL WEATHER ROUNDUP
NATIONAL WEATHER SERVICE PORTLAND OR
600 PM PDT MON JUL 28 2014

NOTE: "FAIR" INDICATES FEW OR NO CLOUDS BELOW 12,000 FEET WITH
NO SIGNIFICANT WEATHER AND/OR OBSTRUCTIONS TO VISIBILITY.

ORZ001>013-290200-
NORTHWEST OREGON


CITY           SKY/WX    TMP DP  RH WIND       PRES   REMARKS
ASTORIA        SUNNY     68  58  70 NW14      30.08F
NEWPORT        FOG       55  55 100 N15G24    30.11F VSB 1/2
PORTLAND       MOSUNNY   91  57  31 NW10      29.99F
VANCOUVER WA   SUNNY     91  52  26 NW12      29.99F
SCAPPOOSE      SUNNY     91  54  28 N9        30.00S
HILLSBORO      SUNNY     92  51  24 N9        30.00S
AURORA         SUNNY     92  56  29 N8        30.00F HX  90
MCMINNVILLE    SUNNY     95  50  21 VRB6      29.99F HX  92
SALEM          SUNNY     95  49  20 N10       29.98F HX  92
CORVALLIS        N/A     91  57  31 NW14      30.00S HX  90
EUGENE         MOSUNNY   95  48  20 N13       29.99F HX  91
$$

ORZ021-028-290200-
SOUTHWEST OREGON


CITY           SKY/WX    TMP DP  RH WIND       PRES   REMARKS
NORTH BEND     CLOUDY    61  61 100 N22G31    30.09S
BROOKINGS      CLEAR     63  56  78 VRB5      30.04S
ROSEBURG       SUNNY     98  55  23 NW10G17   29.95F HX  96
SEXTON SUMMIT  MOSUNNY   86  54  33 VRB6      30.14F
MEDFORD        MOSUNNY  103  40  11 NW10      29.92S HX  98
$$

ORZ009-041-290200-
COLUMBIA GORGE


CITY           SKY/WX    TMP DP  RH WIND       PRES   REMARKS
TROUTDALE      SUNNY     92  58  31 VRB3      29.97F HX  91
THE DALLES     SUNNY     96  59  29 NW13      29.90S HX  95
$$

ORZ029>031-042>050-061>064-290200-
EASTERN OREGON


CITY           SKY/WX    TMP DP  RH WIND       PRES   REMARKS
REDMOND        MOSUNNY   92  36  14 W8        30.08S
BEND           PTCLDY    90  39  17 N8        30.12S
KLAMATH FALLS  MOSUNNY   93  30  10 NW14      30.12F
LAKEVIEW       MOSUNNY   91  32  12 NE3       30.16F
HERMISTON      SUNNY    102  46  15 W9        29.90F HX  98
PENDLETON      SUNNY    100  39  12 W10       29.96F HX  95
JOHN DAY       MOCLDY    94  37  13 E7        30.09S
MEACHAM        SUNNY     89  42  19 CALM      30.14S
LA GRANDE      MOSUNNY   93  39  15 NW15      30.03R
BAKER CITY     PTSUNNY   86  43  22 W13G24    30.10R
BURNS          MOSUNNY   91  35  13 N15       30.10F
ROME             N/A     95  31  10 NW9       30.07F
ONTARIO        MOSUNNY   92  55  28 S6        29.95F HX  90
$$


USA.gov is the U.S. government's official web portal to all federal, state and local government web resources and services.